www.pogodaiklimat.ru

Погода и климат >> Архив погоды >> Мексика >> Tlaxcala Airport


ПОГОДА в Tlaxcala Airport

  • Прогноз погоды в Tlaxcala Airport
  • Монитор погоды в Tlaxcala Airport
  • Климат города

АРХИВ ПОГОДЫ в Tlaxcala Airport

Время (UTC), дата Ветер
(напр.,м/с)
 
Видим.   Явления Облачность Т
(С)
Тd
(С)
f
(%)
Тe
(С)
Тes
(С)
Комфортность P
(гПа)
Po
(гПа)
Тmin
(С)
Tmax
(С)
R
(мм)
R24
(мм)
S
(см)
03 14.11 З 1 8000 м слабая морось 9/1 660 м
[Frnb Ac As]
+13.2 +11.5 89 +13 +13 1015.5 784.8 1
06 14.11 З 1 5000 м дождь {морось} 10/4 300 м
[Frnb Ac As]
+11.4 +11.1 98 +11 +11 1017.1 785.2 8
12 14.11 СВ 2 5000 м слабая морось 10/4 300 м
[Frnb Ac As]
+8.8 +7.7 93 +7 +7 1022.4 785.0 4
15 14.11 СВ 1 10 км слабая морось 10/6 480 м
[Frnb Ac As]
+9.1 +7.4 89 +8 +9 1025.1 786.1 0.4
18 14.11 СВ 1 12 км в посл. час морось 10/10 600 м
[Frnb]
+11.6 +9.5 87 +11 +11 1025.8 786.4 0.4
21 14.11 В 2 12 км слабая морось 10/5 540 м
[Frnb Ac As]
+10.4 +9.1 92 +9 +10 1022.8 785.0 2
00 15.11 СВ 2 12 км в посл. час морось 10/4 300 м
[Sc Ac As]
+10.0 +8.2 89 +8 +8 1021.2 784.4 4
03 15.11 С 1 10 км в посл. час морось 4/0 2000 м
[Ac trans]
+9.5 +8.6 94 +9 +9 1022.7 785.7 0.1
06 15.11 С 1 10 км {морось} 1/0
[Ac trans]
+8.2 +7.4 95 +7 +7 1022.6 785.3 0.1
15 15.11 ЮВ 2 22 км 3/3 480 м
[St]
+8.9 +5.4 79 +7 +10 1025.7 785.7
18 15.11 ЮВ 3 18 км 4/4 930 м
[Cu med, cong]
+17.3 +6.6 49 +17 +24 1023.2 784.9 +4.6 +18.2
21 15.11 ЮВ 3 18 км 5/5 960 м
[Cu hum]
+18.6 +8.3 51 +19 +22 1017.7 782.7
00 16.11 ЮВ 2 20 км 6/4 600 м
[Sc Ac trans Ci ing]
+16.7 +8.4 58 +17 +17 1015.2 782.9 +4.6 +20.4
03 16.11 ЮЗ 1 12 км 1/0 2000 м
[Ac trans]
+12.0 +9.9 87 +12 +12 1016.3 784.9
06 16.11 штиль 0 12 км ясно +8.8 +8.4 97 +8 +8 1017.1 784.7 +20.4
12 16.11 СВ 2 5000 м мгла 10/0
[As op]
+7.0 +6.6 97 +5 +5 1021.7 784.5 +6.4 +20.4
15 16.11 В 2 4000 м местами туман поземный 5/5 500 м
[St]
+9.2 +4.8 74 +8 +10 1024.6 785.7
18 16.11 Ю 2 15 км 3/3 1000 м
[Cu med, cong]
+17.5 +4.7 43 +18 +27 1021.7 784.4 +6.3 +18.7
21 16.11 Ю 3 18 км 3/1 1140 м
[Cu hum Ci fib]
+20.7 +5.7 38 +22 +28 комфорт 1015.9 782.1
00 17.11 ЮЗ 1 18 км 3/0
[Ac trans Ci fib]
+17.7 +5.5 45 +19 +19 1013.6 782.4 +6.3 +21.5
03 17.11 СЗ 1 15 км 1/0 2000 м
[Ac trans]
+11.6 +7.9 78 +12 +12 1014.5 784.1
15 17.11 ЮЗ 1 25 км ясно +9.0 +3.9 70 +9 +13 1025.3 785.4
18 17.11 ЮВ 2 25 км 3/1 1140 м
[Cu hum Cc]
+19.3 +3.2 34 +20 +31 1022.8 784.7 +4.0 +19.8
21 17.11 ЮВ 2 20 км 3/1 1320 м
[Cu hum Ci]
+22.8 +4.0 29 +23 +29 комфорт 1016.0 782.1
00 18.11 ЮЗ 1 20 км 3/0
[Ac trans Ci]
+18.3 +5.4 43 +20 +20 1013.6 782.8 +4.0 +23.5
03 18.11 З 1 12 км ясно +12.3 +6.9 70 +12 +12 1014.6 784.9
06 18.11 штиль 0 12 км ясно +9.0 +3.9 70 +8 +8 1015.2 785.1 +23.5
12 18.11 СВ 2 15 км 1/0
[Ci fib]
+4.3 +3.2 93 +1 +1 1022.1 784.4 +4.2 +22.5
15 18.11 Ю 1 25 км 3/0
[Cc]
+9.9 +1.1 54 +10 +14 1025.7 785.7
18 18.11 Ю 2 30 км 8/0
[Cs]
+19.5 -0.3 26 +20 +31 1022.6 784.7 +3.9 +23.4
21 18.11 З 2 25 км 9/0
[Cs]
+22.1 +3.7 30 +22 +28 комфорт 1016.6 782.6
00 19.11 ЮЗ 1 18 км 8/0
[Cs]
+18.7 +7.6 48 +20 +20 1013.7 782.8 +3.9 +23.8
03 19.11 З 1 15 км 4/0 2000 м
[Ac trans]
+12.2 +7.0 71 +12 +12 1014.4 784.7
06 19.11 ЮЗ 1 12 км ясно +9.0 +6.7 85 +8 +8 1016.5 785.1 +23.8
12 19.11 СВ 2 20 км ясно +4.5 +3.0 90 +2 +2 1022.4 784.7 +4.4 +23.8
15 19.11 штиль 0 30 км ясно +10.5 +1.4 53 +10 +15 1025.8 786.0
18 19.11 ЮВ 3 30 км 1/0
[Cc]
+20.0 +1.5 29 +21 +31 комфорт 1022.6 785.0 +4.1 +21.9
21 19.11 ЮВ 2 25 км 3/1 1320 м
[Cu hum Ci fib]
+23.6 +5.0 30 +23 +30 комфорт 1016.4 782.9
00 20.11 ЮЗ 1 25 км 3/1 1000 м
[Cu hum Ci]
+19.3 +6.1 42 +21 +21 комфорт 1013.7 783.5 +4.1 +24.4
03 20.11 СЗ 1 15 км ясно +12.8 +7.7 71 +13 +13 1014.4 785.3
06 20.11 СЗ 1 12 км ясно +10.0 +7.0 82 +10 +10 1016.3 785.7 +24.4
12 20.11 СВ 1 18 км ясно +4.8 +4.0 95 +3 +3 1021.8 784.7 +4.7 +24.4
15 20.11 В 1 30 км 1/0
[Cc]
+9.8 +3.3 64 +10 +14 1025.7 786.3
18 20.11 З 2 30 км 1/1 1320 м
[Cu hum]
+21.2 +1.8 28 +21 +32 комфорт 1022.5 785.1 +4.5 +24.2
21 20.11 З 3 25 км 3/1 1320 м
[Cu hum Ci fib]
+24.0 +5.1 29 +24 +29 комфорт 1016.0 782.9

 

Местоположение метеостанции Tlaxcala Airport (Мексика): широта 19.31 долгота -98.24 высота над уровнем моря 2282 м.

В архиве по умолчанию представлена погода в Tlaxcala Airport за последнюю неделю. Архивные данные за месяц целиком и за предыдущие месяцы, начиная с января 2011 года, Вы можете получить, выбрав интересующий диапазон дат из раскрывающегося списка и нажав кнопку "Ввод!".


*Определитесь, кто Вы:
робот инопланетянин человек

Внимание! Время в таблицах - всемирное. Для получения местного времени необходимо прибавить поправку, которая в Tlaxcala Airport равна -6 ч.

Смотрите также архив погоды в соседних городах и на ближайших метеорологических станциях:

Погода в Tlaxcala (Мексика) (2 км)
Погода в Puebla (Мексика) (30 км)
Погода в Tulancingo (Мексика) (87 км)
Погода в Institute of Geography (Мексика) (99 км)
Погода в Mexico City (Мексика) (99 км)
Погода в Pachuca (Мексика) (106 км)
Погода в Cuernavaca (Мексика) (115 км)
Погода в Zacatepec (Мексика) (119 км)
Погода в Orizaba (Мексика) (130 км)
Погода в Jalapa (Мексика) (142 км)

Пояснения к столбцам:

Ветер - указаны скорость ветра в м/с - средняя за 10 мин, порывы в срок и между сроками (в фигурных скобках) и направление, откуда дует ветер: С - северный, СВ - северо-восточный, В - восточный, ЮВ - юго-восточный, Ю - южный, ЮЗ - юго-западный, З - западный, СЗ - северо-западный.
Видимость - горизонтальная дальность видимости в метрах или километрах. При видимости от 1 до 10 км при отсутствии осадков обычно наблюдается дымка, при ухудшении видимости до 1 км и менее - туман. В сухую погоду видимость может ухудшаться дымом, пылью или мглою.
Явления - указаны атмосферные явления, наблюдавшиеся в срок или в последний час перед сроком; фигурными скобками обозначены явления, наблюдавшиеся между сроками (за 1-3 часа до срока); квадратными скобками обозначены град или гололедные отложения с указанием их диаметра в мм.
Облачность - указаны через наклонную черту общая и нижняя облачность в баллах и высота нижней границы облаков в метрах; квадратными скобками обозначены формы облаков: Ci - перистые, Cs - перисто-слоистые, Cc - перисто-кучевые, Ac - высококучевые, As - высокослоистые, Sc - слоисто-кучевые, Ns - слоисто-дождевые, Cu - кучевые, Cb - кучево-дождевые. Подробнее классификацию облаков см. в Атласе облаков (PDF).
T - Температура воздуха - температура, измеренная на высоте 2 м над землей.
Td - Температура точки росы - температура, при понижении до которой содержащийся в воздухе водяной пар достигнет насыщения.
f - Относительная влажность воздуха - влажноcть воздуха, измеренная на высоте 2 м над землей.
Te - Эффективная температура - температура, которую ощущает одетый по сезону человек в тени. Характеристика душности погоды. При расчете учитывается влияние влажности воздуха и скорости ветра на теплоощущения человека.
Tes - Эффективная температура на солнце - температура, которую ощущает человек, с поправкой на солнечный нагрев. Характеристика знойности погоды. Зависит от высоты солнца над горизонтом, облачности и скорости ветра. Ночью, в пасмурную погоду, а также при ветре 12 м/с и более поправка равна нулю.
P - Атмосферное давление - приведенное к уровню моря атмосферное давление.
Po - Атмосферное давление - измеренное на уровне метеостанции атмосферное давление.
Tmin - Минимальная температура - минимум температуры воздуха на высоте 2 м над землей.
Tmax - Максимальная температура - максимум температуры воздуха на высоте 2 м над землей.
R - Количество осадков - Количество выпавших осадков за период времени, мм. При наведении курсора мыши на число - период времени, за который выпало указанное количество осадков.
R24 - Количество осадков - Количество выпавших осадков за 24 часа, мм.
S - Снежный покров - Высота снежного покрова, см. При наведении курсора мыши на число - состояние снежного покрова и степень покрытия местности в баллах.